period_start,C,m1,H,J0,J1,J2,J3,J4,J5,JA,JB,JC,JD,JJ,JK,JN,#
2014-05-07 00:00:56,0.10,1.61,0.00,19.81,26.22,27.66,6.13,30.71,1018.57,2041.97,2845.67,2894.31,3093.05,350.09,328.21,15.37,0000 0000 0000 0000 000000
2014-05-07 00:01:56,0.04,1.61,0.00,19.81,26.22,27.70,6.08,30.79,1018.58,2041.97,2845.35,2894.19,3093.02,349.56,327.64,15.38,0000 0000 0000 0000 000000
2014-05-07 00:02:56,0.08,1.61,0.00,19.81,26.22,27.74,5.95,31.00,1018.59,2041.98,2845.15,2894.09,3093.00,348.44,326.67,15.38,0000 0000 0000 0000 000000
2014-05-07 00:03:56,0.06,1.61,0.00,19.82,26.22,27.74,6.09,30.63,1018.60,2041.98,2845.05,2894.03,3093.00,350.77,328.30,15.39,0000 0000 0000 0000 000000
2014-05-07 00:04:57,0.03,1.61,0.00,19.84,26.23,27.73,6.17,30.83,1018.59,2041.99,2845.01,2894.01,3092.99,350.13,328.46,15.39,0000 0000 0000 0000 000000
2014-05-07 00:05:57,0.01,1.61,0.00,19.83,26.23,27.71,6.05,30.83,1018.58,2041.98,2845.00,2894.01,3092.99,350.09,327.85,15.40,0000 0000 0000 0000 000000
2014-05-07 00:06:57,0.00,1.61,0.00,19.82,26.23,27.73,6.08,30.92,1018.57,2041.99,2844.98,2894.00,3092.99,350.14,328.52,15.41,0000 0000 0000 0000 000000
2014-05-07 00:07:58,0.01,1.61,0.00,19.82,26.24,27.77,6.00,30.71,1018.57,2041.99,2844.97,2894.00,3092.98,349.28,327.40,15.41,0000 0000 0000 0000 000000
2014-05-07 00:08:58,0.00,1.61,0.00,19.84,26.25,27.80,6.27,30.67,1018.58,2041.99,2844.97,2894.00,3092.96,350.22,328.29,15.42,0000 0000 0000 0000 000000
2014-05-07 00:09:58,0.00,1.61,0.00,19.84,26.25,27.82,6.23,30.79,1018.58,2041.98,2844.92,2894.00,3092.91,351.10,329.28,15.42,0000 0000 0000 0000 000000
2014-05-07 00:10:59,0.01,1.61,0.00,19.86,26.25,27.82,6.22,30.79,1018.57,2041.98,2844.85,2894.00,3092.75,351.04,329.05,15.43,0000 0000 0000 0000 000000
2014-05-07 00:11:59,0.04,1.61,0.00,19.87,26.25,27.80,6.10,30.92,1018.59,2041.99,2844.66,2893.99,3092.59,349.67,327.56,15.44,0000 0000 0000 0000 000000
2014-05-07 00:12:59,0.05,1.61,0.00,19.87,26.25,27.81,6.10,30.88,1018.60,2041.99,2844.40,2893.99,3092.36,349.65,327.45,15.44,0000 0000 0000 0000 000000
2014-05-07 00:13:59,0.08,1.61,0.00,19.85,26.25,27.80,6.13,30.92,1018.57,2041.98,2844.20,2893.99,3092.19,350.24,328.48,15.45,0000 0000 0000 0000 000000
2014-05-07 00:14:59,0.05,1.61,0.00,19.87,26.25,27.78,6.17,30.58,1018.60,2041.97,2844.08,2893.95,3092.07,350.01,328.07,15.45,0000 0000 0000 0000 000000
2014-05-07 00:16:00,0.02,1.61,0.00,19.89,26.25,27.80,6.13,30.58,1018.59,2041.98,2844.04,2893.94,3092.04,349.92,327.87,15.46,0000 0000 0000 0000 000000
2014-05-07 00:17:00,0.02,1.61,0.00,19.89,26.25,27.81,6.13,30.79,1018.58,2041.99,2844.03,2893.85,3092.02,350.20,327.66,15.46,0000 0000 0000 0000 000000
2014-05-07 00:18:00,0.04,1.61,0.00,19.89,26.25,27.85,6.02,30.96,1018.60,2041.99,2844.01,2893.70,3092.01,349.67,327.73,15.47,0000 0000 0000 0000 000000
2014-05-07 00:19:01,0.04,1.61,0.00,19.89,26.25,27.82,6.14,30.88,1018.58,2041.97,2844.00,2893.36,3092.00,350.39,328.41,15.48,0000 0000 0000 0000 000000
2014-05-07 00:20:01,0.08,1.61,0.00,19.89,26.26,27.81,6.10,30.71,1018.59,2041.97,2843.97,2893.18,3092.00,349.56,327.49,15.48,0000 0000 0000 0000 000000
2014-05-07 00:21:01,0.05,1.61,0.00,19.90,26.27,27.81,6.13,30.83,1018.62,2041.98,2843.94,2893.09,3092.00,349.89,327.94,15.49,0000 0000 0000 0000 000000
2014-05-07 00:22:02,0.01,1.61,0.00,19.89,26.27,27.84,5.94,30.92,1018.60,2041.98,2843.86,2893.06,3091.99,348.72,326.84,15.49,0000 0000 0000 0000 000000
2014-05-07 00:23:02,0.02,1.61,0.00,19.90,26.27,27.87,5.98,30.83,1018.59,2041.98,2843.71,2893.02,3091.98,348.67,326.83,15.50,0000 0000 0000 0000 000000
2014-05-07 00:24:02,0.06,1.61,0.00,19.92,26.27,27.88,6.11,30.83,1018.57,2041.98,2843.41,2893.00,3091.95,350.32,327.93,15.51,0000 0000 0000 0000 000000
2014-05-07 00:25:02,0.03,1.61,0.00,19.91,26.27,27.88,6.13,31.17,1018.58,2041.96,2843.18,2893.00,3091.81,350.45,328.02,15.51,0000 0000 0000 0000 000000
2014-05-07 00:26:02,0.06,1.61,0.00,19.91,26.27,27.86,6.18,31.13,1018.58,2041.93,2843.07,2893.00,3091.58,349.77,327.74,15.52,0000 0000 0000 0000 000000
2014-05-07 00:27:02,0.00,1.61,0.00,19.92,26.27,27.89,6.14,31.04,1018.57,2041.92,2843.02,2893.00,3091.34,350.32,327.96,15.52,0000 0000 0000 0000 000000
2014-05-07 00:28:03,0.04,1.61,0.00,19.94,26.27,27.88,6.04,30.79,1018.57,2041.95,2843.00,2893.00,3091.19,349.80,327.59,15.53,0000 0000 0000 0000 000000
2014-05-07 00:29:03,0.05,1.61,0.00,19.95,26.27,27.87,6.19,30.92,1018.57,2041.96,2843.00,2893.00,3091.11,349.66,327.49,15.53,0000 0000 0000 0000 000000
2014-05-07 00:30:03,0.00,1.61,0.00,19.95,26.27,27.89,6.06,30.54,1018.57,2041.95,2842.99,2892.98,3091.06,350.32,328.27,15.54,0000 0000 0000 0000 000000
2014-05-07 00:31:03,0.03,1.61,0.00,19.94,26.28,27.89,6.14,31.08,1018.58,2041.94,2842.99,2892.97,3091.02,349.50,327.34,15.55,0000 0000 0000 0000 000000
2014-05-07 00:32:03,-0.02,1.61,0.00,19.94,26.29,27.85,5.92,30.58,1018.61,2041.93,2842.93,2892.87,3091.00,350.18,327.57,15.55,0000 0000 0000 0000 000000
2014-05-07 00:33:04,0.04,1.61,0.00,19.93,26.29,27.86,6.08,30.92,1018.58,2041.92,2842.81,2892.77,3091.00,348.92,326.75,15.56,0000 0000 0000 0000 000000
2014-05-07 00:34:04,0.04,1.61,0.00,19.94,26.30,27.86,6.16,30.92,1018.57,2041.94,2842.57,2892.65,3091.00,350.96,328.57,15.56,0000 0000 0000 0000 000000
2014-05-07 00:35:04,0.10,1.61,0.00,19.96,26.30,27.85,6.08,30.79,1018.57,2041.91,2842.30,2892.38,3090.99,349.48,327.47,15.57,0000 0000 0000 0000 000000
2014-05-07 00:36:04,0.07,1.61,0.00,19.96,26.30,27.88,6.15,30.83,1018.58,2041.91,2842.13,2892.21,3090.98,350.05,327.88,15.58,0000 0000 0000 0000 000000
2014-05-07 00:37:04,0.06,1.61,0.00,19.95,26.30,27.92,6.07,30.75,1018.57,2041.89,2842.06,2892.09,3090.96,349.87,327.76,15.58,0000 0000 0000 0000 000000
2014-05-07 00:38:05,0.03,1.61,0.00,19.97,26.30,28.02,6.20,30.83,1018.57,2041.87,2842.02,2892.03,3090.92,349.84,328.11,15.59,0000 0000 0000 0000 000000
2014-05-07 00:39:05,0.03,1.61,0.00,19.95,26.30,28.04,5.98,30.54,1018.57,2041.84,2842.00,2892.03,3090.93,349.05,327.07,15.59,0000 0000 0000 0000 000000
2014-05-07 00:40:05,-0.03,1.61,0.00,19.96,26.30,27.98,6.08,30.96,1018.57,2041.87,2842.00,2892.01,3090.83,349.26,327.27,15.60,0000 0000 0000 0000 000000
2014-05-07 00:41:05,0.05,1.61,0.00,19.95,26.31,27.97,6.27,30.88,1018.57,2041.88,2841.99,2892.00,3090.56,351.13,329.02,15.61,0000 0000 0000 0000 000000
2014-05-07 00:42:06,0.05,1.61,0.00,19.95,26.31,28.03,6.19,30.88,1018.57,2041.86,2841.91,2892.00,3090.28,349.75,327.73,15.61,0000 0000 0000 0000 000000
2014-05-07 00:43:06,0.00,1.61,0.00,19.97,26.32,28.06,6.16,30.88,1018.57,2041.84,2841.81,2892.00,3090.13,349.86,327.86,15.62,0000 0000 0000 0000 000000
2014-05-07 00:44:06,0.03,1.62,0.00,19.98,26.32,28.01,6.08,30.58,1018.57,2041.87,2841.63,2892.00,3090.05,349.92,327.85,15.62,0000 0000 0000 0000 000000
2014-05-07 00:45:06,0.09,1.62,0.00,19.98,26.32,28.05,6.04,30.63,1018.57,2041.81,2841.31,2891.97,3090.02,349.78,327.72,15.63,0000 0000 0000 0000 000000
2014-05-07 00:46:07,0.01,1.62,0.00,19.97,26.32,28.00,6.04,30.92,1018.57,2041.80,2841.11,2891.98,3090.00,349.01,327.27,15.63,0000 0000 0000 0000 000000
2014-05-07 00:47:07,0.01,1.62,0.00,19.99,26.32,28.01,6.04,30.79,1018.57,2041.77,2841.07,2891.97,3090.00,349.81,327.31,15.64,0000 0000 0000 0000 000000
2014-05-07 00:48:07,-0.02,1.62,0.00,19.99,26.32,28.05,6.07,30.79,1018.57,2041.78,2841.04,2891.97,3090.00,348.97,326.58,15.65,0000 0000 0000 0000 000000
2014-05-07 00:49:07,0.04,1.62,0.00,19.99,26.32,28.03,6.10,30.88,1018.57,2041.78,2841.03,2891.89,3090.00,349.70,327.64,15.65,0000 0000 0000 0000 000000
2014-05-07 00:50:07,0.00,1.62,0.00,19.99,26.33,28.02,6.22,30.71,1018.57,2041.61,2841.01,2891.73,3090.00,351.24,328.98,15.66,0000 0000 0000 0000 000000
2014-05-07 00:51:08,-0.11,1.62,0.00,20.01,26.34,28.03,6.08,30.63,1018.57,2041.64,2841.00,2891.56,3089.99,351.50,329.44,15.66,0000 0000 0000 0000 000000
2014-05-07 00:52:08,0.13,1.62,0.00,20.04,26.35,28.06,6.11,30.83,1018.57,2041.59,2840.98,2891.36,3089.98,350.45,328.28,15.67,0000 0000 0000 0000 000000
2014-05-07 00:53:08,-0.02,1.62,0.00,20.05,26.35,28.09,6.13,30.63,1018.57,2041.50,2840.96,2891.16,3089.90,350.23,328.07,15.68,0000 0000 0000 0000 000000
2014-05-07 00:54:08,-0.03,1.62,0.00,20.03,26.35,28.07,6.17,30.63,1018.57,2041.45,2840.90,2891.08,3089.68,350.41,328.27,15.68,0000 0000 0000 0000 000000
2014-05-07 00:55:08,0.04,1.62,0.00,20.05,26.35,28.08,6.18,30.79,1018.57,2041.41,2840.69,2891.03,3089.35,350.32,328.16,15.69,0000 0000 0000 0000 000000
2014-05-07 00:56:09,0.07,1.62,0.00,20.07,26.35,28.06,6.19,30.75,1018.57,2041.37,2840.34,2891.01,3089.14,349.92,327.91,15.69,0000 0000 0000 0000 000000
2014-05-07 00:57:09,0.03,1.62,0.00,20.07,26.35,28.11,6.31,30.67,1018.57,2041.40,2840.15,2891.00,3089.06,351.70,329.42,15.70,0000 0000 0000 0000 000000
2014-05-07 00:58:09,0.14,1.62,0.00,20.10,26.35,28.08,6.08,30.88,1018.57,2041.27,2840.05,2891.00,3089.03,349.28,327.04,15.70,0000 0000 0000 0000 000000
2014-05-07 00:59:09,-0.14,1.62,0.00,20.12,26.36,28.05,6.23,30.79,1018.57,2041.19,2840.02,2891.00,3089.01,350.06,327.83,15.71,0000 0000 0000 0000 000000
2014-05-07 01:00:09,-0.04,1.62,0.00,20.10,26.37,28.05,6.08,30.71,1018.57,2041.12,2840.00,2891.00,3089.00,349.71,327.75,15.72,0000 0000 0000 0000 000000
2014-05-07 01:01:10,-0.07,1.62,0.00,20.12,26.37,28.07,6.17,30.54,1018.59,2041.12,2839.99,2891.00,3089.00,351.27,328.98,15.72,0000 0000 0000 0000 000000
2014-05-07 01:02:10,0.01,1.62,0.00,20.11,26.37,28.03,6.23,30.71,1018.57,2041.16,2839.99,2891.00,3089.00,350.18,328.30,15.73,0000 0000 0000 0000 000000
2014-05-07 01:03:10,0.01,1.62,0.00,20.12,26.37,28.05,6.13,30.71,1018.57,2041.10,2839.97,2890.97,3089.00,350.73,328.13,15.73,0000 0000 0000 0000 000000
2014-05-07 01:04:10,-0.01,1.62,0.00,20.16,26.37,28.09,6.08,30.67,1018.57,2041.10,2839.90,2890.87,3088.99,350.25,327.97,15.74,0000 0000 0000 0000 000000
2014-05-07 01:05:10,0.04,1.62,0.00,20.15,26.37,28.09,6.17,30.71,1018.57,2041.08,2839.61,2890.64,3088.88,350.42,328.14,15.75,0000 0000 0000 0000 000000
2014-05-07 01:06:11,0.12,1.62,0.00,20.15,26.38,28.11,5.99,30.58,1018.57,2041.06,2839.31,2890.33,3088.75,350.12,327.85,15.75,0000 0000 0000 0000 000000
2014-05-07 01:07:11,0.12,1.62,0.00,20.15,26.39,28.17,6.18,30.79,1018.57,2041.06,2839.19,2890.20,3088.54,350.71,328.40,15.76,0000 0000 0000 0000 000000
2014-05-07 01:08:11,0.08,1.62,0.00,20.14,26.39,28.16,6.12,30.79,1018.56,2041.03,2839.07,2890.08,3088.24,349.98,327.73,15.76,0000 0000 0000 0000 000000
2014-05-07 01:09:11,0.05,1.62,0.00,20.14,26.40,28.14,6.05,30.75,1018.57,2041.03,2839.02,2890.04,3088.11,349.67,327.45,15.77,0000 0000 0000 0000 000000
2014-05-07 01:10:11,0.02,1.62,0.00,20.10,26.40,28.14,6.02,30.71,1018.57,2041.02,2839.00,2890.03,3088.07,349.38,327.22,15.77,0000 0000 0000 0000 000000
2014-05-07 01:11:12,0.00,1.62,0.00,20.07,26.40,28.13,6.08,30.75,1018.57,2041.02,2838.99,2890.00,3088.03,350.14,328.27,15.78,0000 0000 0000 0000 000000
2014-05-07 01:12:12,0.02,1.62,0.00,20.06,26.40,28.07,6.14,30.67,1018.57,2041.02,2838.96,2890.00,3088.01,349.53,327.30,15.79,0000 0000 0000 0000 000000
2014-05-07 01:13:12,0.00,1.62,0.00,20.08,26.40,28.06,6.10,30.67,1018.57,2041.01,2838.84,2890.00,3088.00,350.57,328.51,15.79,0000 0000 0000 0000 000000
2014-05-07 01:14:12,0.01,1.62,0.00,20.12,26.41,28.09,5.94,30.58,1018.57,2041.02,2838.73,2890.00,3088.00,350.49,328.63,15.80,0000 0000 0000 0000 000000
2014-05-07 01:15:13,0.02,1.62,0.00,20.14,26.42,28.14,6.15,30.63,1018.56,2041.02,2838.63,2890.00,3088.00,350.63,327.85,15.80,0000 0000 0000 0000 000000
2014-05-07 01:16:13,0.01,1.62,0.00,20.15,26.42,28.14,5.92,30.71,1018.56,2041.01,2838.29,2890.00,3087.99,349.04,326.98,15.81,0000 0000 0000 0000 000000
2014-05-07 01:17:13,0.05,1.62,0.00,20.16,26.42,28.13,6.18,30.75,1018.56,2041.00,2838.12,2889.98,3087.97,350.63,328.29,15.82,0000 0000 0000 0000 000000
2014-05-07 01:18:13,0.03,1.62,0.00,20.16,26.42,28.14,6.10,30.71,1018.50,2041.00,2838.04,2889.86,3087.87,349.47,327.18,15.82,0000 0000 0000 0000 000000
2014-05-07 01:19:14,0.07,1.62,0.00,20.17,26.42,28.17,6.14,30.67,1018.50,2041.00,2838.01,2889.74,3087.57,350.16,327.85,15.83,0000 0000 0000 0000 000000
2014-05-07 01:20:14,0.07,1.62,0.00,20.19,26.42,28.18,6.07,30.75,1018.51,2041.00,2838.00,2889.55,3087.41,349.64,327.35,15.83,0000 0000 0000 0000 000000
2014-05-07 01:21:14,0.07,1.62,0.00,20.17,26.43,28.23,6.16,30.71,1018.55,2041.01,2837.98,2889.33,3087.26,348.84,326.70,15.84,0000 0000 0000 0000 000000
2014-05-07 01:22:14,0.08,1.62,0.00,20.15,26.44,28.25,6.11,30.88,1018.55,2041.01,2837.97,2889.24,3087.17,350.10,327.88,15.84,0000 0000 0000 0000 000000
2014-05-07 01:23:14,0.02,1.62,0.00,20.14,26.44,28.33,6.09,30.54,1018.48,2041.00,2837.96,2889.15,3087.09,350.11,328.02,15.85,0000 0000 0000 0000 000000
2014-05-07 01:24:15,0.05,1.62,0.00,20.12,26.45,28.25,6.13,30.83,1018.41,2041.00,2837.71,2889.07,3087.05,349.63,327.48,15.86,0000 0000 0000 0000 000000
2014-05-07 01:25:15,0.07,1.62,0.00,20.13,26.45,28.18,6.17,31.04,1018.29,2041.00,2837.39,2889.03,3087.01,350.83,328.29,15.86,0000 0000 0000 0000 000000
2014-05-07 01:26:15,0.06,1.62,0.00,20.15,26.45,28.18,5.95,30.83,1018.20,2041.00,2837.17,2889.01,3087.00,349.71,327.36,15.87,0000 0000 0000 0000 000000
2014-05-07 01:27:15,0.04,1.62,0.00,20.17,26.45,28.17,6.09,30.88,1018.15,2041.00,2837.06,2889.00,3087.00,350.28,327.85,15.87,0000 0000 0000 0000 000000
2014-05-07 01:28:16,0.01,1.62,0.00,20.18,26.45,28.21,6.09,30.75,1018.12,2041.00,2837.02,2889.00,3087.00,349.58,327.17,15.88,0000 0000 0000 0000 000000
2014-05-07 01:29:16,0.00,1.62,0.00,20.18,26.46,28.27,6.03,30.96,1018.15,2041.00,2837.00,2889.00,3087.00,349.50,327.10,15.89,0000 0000 0000 0000 000000
2014-05-07 01:30:16,0.00,1.62,0.00,20.15,26.47,28.22,6.17,30.88,1018.19,2041.00,2837.00,2888.99,3086.96,350.26,327.86,15.89,0000 0000 0000 0000 000000
2014-05-07 01:31:16,0.00,1.62,0.00,20.16,26.47,28.20,5.98,30.79,1018.18,2041.00,2836.98,2888.99,3086.94,349.34,327.00,15.90,0000 0000 0000 0000 000000
2014-05-07 01:32:16,0.00,1.62,0.00,20.14,26.47,28.18,5.96,30.88,1018.25,2041.00,2836.97,2888.98,3086.86,349.84,327.50,15.90,0000 0000 0000 0000 000000
2014-05-07 01:33:17,0.02,1.62,0.00,20.16,26.47,28.22,6.13,30.75,1018.31,2041.00,2836.77,2888.95,3086.58,349.71,327.37,15.91,0000 0000 0000 0000 000000
2014-05-07 01:34:17,0.09,1.62,0.00,20.22,26.47,28.27,6.06,30.63,1018.28,2041.00,2836.35,2888.67,3086.29,349.19,326.94,15.92,0000 0000 0000 0000 000000
2014-05-07 01:35:17,0.19,1.62,0.00,20.23,26.48,28.22,6.01,30.83,1018.30,2041.00,2836.13,2888.45,3086.13,348.04,325.74,15.92,0000 0000 0000 0000 000000
2014-05-07 01:36:18,0.10,1.63,0.00,20.26,26.49,28.22,6.15,30.92,1018.29,2041.00,2836.04,2888.21,3086.05,350.05,327.58,15.93,0000 0000 0000 0000 000000
2014-05-07 01:37:18,0.09,1.63,0.00,20.27,26.50,28.21,6.16,30.71,1018.21,2041.00,2836.00,2888.09,3086.02,349.92,327.29,15.93,0000 0000 0000 0000 000000
2014-05-07 01:38:18,0.04,1.63,0.00,20.29,26.50,28.23,6.17,30.71,1018.23,2041.00,2836.00,2888.04,3086.00,350.77,328.34,15.94,0000 0000 0000 0000 000000
2014-05-07 01:39:18,0.01,1.63,0.00,20.29,26.50,28.23,6.13,30.83,1018.12,2041.00,2835.99,2888.02,3086.00,349.58,327.05,15.94,0000 0000 0000 0000 000000
2014-05-07 01:40:18,0.00,1.63,0.00,20.28,26.50,28.33,6.06,30.63,1018.11,2040.99,2835.83,2888.00,3086.00,350.91,328.31,15.95,0000 0000 0000 0000 000000
2014-05-07 01:41:19,0.03,1.63,0.00,20.27,26.50,28.35,6.23,30.58,1018.10,2040.99,2835.58,2888.00,3085.96,351.95,328.99,15.96,0000 0000 0000 0000 000000
2014-05-07 01:42:19,0.05,1.63,0.00,20.29,26.51,28.34,6.12,30.63,1018.08,2040.99,2835.44,2888.00,3085.90,350.22,327.51,15.96,0000 0000 0000 0000 000000
2014-05-07 01:43:19,0.03,1.63,0.00,20.29,26.52,28.33,6.12,30.63,1018.09,2040.99,2835.22,2888.00,3085.79,350.24,327.85,15.97,0000 0000 0000 0000 000000
2014-05-07 01:44:20,0.05,1.63,0.00,20.29,26.52,28.37,6.00,30.79,1018.08,2040.99,2835.09,2887.99,3085.59,349.11,326.64,15.97,0000 0000 0000 0000 000000
2014-05-07 01:45:20,0.05,1.63,0.00,20.27,26.52,28.35,6.03,30.96,1018.08,2040.99,2835.04,2887.97,3085.35,349.64,326.97,15.98,0000 0000 0000 0000 000000
2014-05-07 01:46:20,0.05,1.63,0.00,20.23,26.52,28.31,6.02,30.79,1018.08,2040.98,2835.04,2887.96,3085.25,349.31,326.86,15.99,0000 0000 0000 0000 000000
2014-05-07 01:47:20,0.00,1.63,0.00,20.22,26.52,28.27,6.15,30.83,1018.08,2040.98,2835.02,2887.91,3085.14,350.33,327.81,15.99,0000 0000 0000 0000 000000
2014-05-07 01:48:21,0.02,1.63,0.00,20.23,26.53,28.29,6.04,30.83,1018.08,2040.98,2835.00,2887.82,3085.06,348.57,326.16,16.00,0000 0000 0000 0000 000000
2014-05-07 01:49:21,0.03,1.63,0.00,20.27,26.54,28.29,6.13,30.75,1018.08,2040.98,2834.99,2887.60,3085.02,350.22,327.67,16.00,0000 0000 0000 0000 000000
2014-05-07 01:50:21,0.07,1.63,0.00,20.29,26.55,28.35,6.07,30.83,1018.09,2040.98,2834.97,2887.43,3085.00,349.41,326.88,16.01,0000 0000 0000 0000 000000
2014-05-07 01:51:21,0.05,1.63,0.00,20.31,26.55,28.36,6.22,30.75,1018.08,2040.99,2834.95,2887.22,3085.00,350.10,327.50,16.01,0000 0000 0000 0000 000000
2014-05-07 01:52:22,0.06,1.63,0.00,20.35,26.55,28.33,6.18,30.63,1018.09,2040.99,2834.84,2887.11,3085.00,350.48,327.26,16.02,0000 0000 0000 0000 000000
2014-05-07 01:53:22,0.04,1.63,0.00,20.35,26.55,28.40,6.05,30.83,1018.08,2040.95,2834.55,2887.05,3085.00,350.98,328.28,16.03,0000 0000 0000 0000 000000
2014-05-07 01:54:23,0.04,1.63,0.00,20.38,26.55,28.42,6.24,30.83,1018.08,2040.95,2834.25,2887.02,3084.97,350.69,327.98,16.03,0000 0000 0000 0000 000000
2014-05-07 01:55:23,0.05,1.63,0.00,20.35,26.57,28.47,6.05,30.88,1018.08,2040.95,2834.12,2887.00,3084.91,350.48,328.00,16.04,0000 0000 0000 0000 000000
2014-05-07 01:56:23,0.03,1.63,0.00,20.36,26.57,28.47,6.03,30.88,1018.08,2040.93,2834.06,2887.00,3084.80,349.47,327.20,16.04,0000 0000 0000 0000 000000
2014-05-07 01:57:23,0.00,1.63,0.00,20.36,26.57,28.41,6.22,30.83,1018.08,2040.91,2834.04,2887.00,3084.56,350.29,328.01,16.05,0000 0000 0000 0000 000000
2014-05-07 01:58:24,0.01,1.63,0.00,20.37,26.57,28.39,6.18,30.92,1018.08,2040.89,2834.01,2886.99,3084.37,350.18,327.48,16.06,0000 0000 0000 0000 000000
2014-05-07 01:59:24,0.02,1.63,0.00,20.37,26.57,28.36,6.02,30.75,1018.08,2040.87,2834.00,2886.97,3084.17,349.77,326.61,16.06,0000 0000 0000 0000 000000
2014-05-07 02:00:24,0.02,1.63,0.00,20.39,26.57,28.36,6.15,30.71,1018.08,2040.85,2833.98,2886.92,3084.08,350.04,327.37,16.07,0000 0000 0000 0000 000000
2014-05-07 02:01:24,0.02,1.63,0.00,20.36,26.57,28.31,6.02,30.75,1018.08,2040.92,2833.88,2886.93,3084.05,349.70,326.77,16.07,0000 0000 0000 0000 000000
2014-05-07 02:02:25,0.06,1.63,0.00,20.30,26.58,28.32,6.06,30.71,1018.09,2040.89,2833.72,2886.84,3084.01,349.27,326.88,16.08,0000 0000 0000 0000 000000
2014-05-07 02:03:25,0.02,1.63,0.00,20.28,26.59,28.32,6.09,30.75,1018.08,2040.88,2833.65,2886.71,3084.00,349.73,327.38,16.09,0000 0000 0000 0000 000000
2014-05-07 02:04:25,0.05,1.63,0.00,20.29,26.60,28.34,6.19,30.83,1018.09,2040.76,2833.37,2886.42,3084.00,351.24,328.60,16.09,0000 0000 0000 0000 000000
2014-05-07 02:05:26,0.01,1.63,0.00,20.32,26.60,28.31,6.17,30.79,1018.10,2040.52,2833.17,2886.20,3083.98,350.18,327.58,16.10,0000 0000 0000 0000 000000
2014-05-07 02:06:26,-0.05,1.63,0.00,20.32,26.60,28.32,6.13,31.00,1018.08,2040.42,2833.06,2886.07,3083.95,349.78,327.30,16.10,0000 0000 0000 0000 000000
2014-05-07 02:07:26,-0.05,1.63,0.00,20.36,26.60,28.36,6.10,30.71,1018.09,2040.35,2833.02,2886.02,3083.84,351.14,328.43,16.11,0000 0000 0000 0000 000000
2014-05-07 02:08:27,-0.03,1.63,0.00,20.37,26.62,28.38,5.99,30.88,1018.08,2040.31,2832.98,2886.00,3083.58,349.49,327.07,16.11,0000 0000 0000 0000 000000
2014-05-07 02:09:27,0.01,1.63,0.00,20.38,26.62,28.38,6.15,30.54,1018.08,2040.22,2832.82,2886.00,3083.26,350.60,327.74,16.12,0000 0000 0000 0000 000000
2014-05-07 02:10:27,0.02,1.63,0.00,20.39,26.62,28.46,6.23,30.96,1018.08,2040.29,2832.67,2886.00,3083.13,349.84,327.17,16.13,0000 0000 0000 0000 000000
2014-05-07 02:11:27,0.06,1.63,0.00,20.42,26.62,28.47,6.03,30.67,1018.08,2040.23,2832.63,2886.00,3083.06,349.73,327.04,16.13,0000 0000 0000 0000 000000
2014-05-07 02:12:28,0.01,1.63,0.00,20.44,26.62,28.44,6.13,30.88,1018.08,2040.18,2832.33,2885.97,3083.02,350.33,327.38,16.14,0000 0000 0000 0000 000000
2014-05-07 02:13:28,0.02,1.63,0.00,20.45,26.63,28.48,5.86,30.54,1018.07,2040.17,2832.12,2885.88,3083.00,348.63,326.21,16.14,0000 0000 0000 0000 000000
2014-05-07 02:14:28,0.04,1.63,0.00,20.48,26.64,28.47,6.00,30.88,1018.08,2040.14,2832.05,2885.73,3083.00,349.28,326.54,16.15,0000 0000 0000 0000 000000
2014-05-07 02:15:29,0.04,1.63,0.00,20.48,26.65,28.54,6.04,30.79,1018.06,2040.12,2832.02,2885.36,3083.00,350.37,327.35,16.16,0000 0000 0000 0000 000000
2014-05-07 02:16:29,0.06,1.63,0.00,20.44,26.65,28.53,6.03,30.71,1018.02,2040.08,2831.99,2885.15,3082.97,350.24,327.64,16.16,0000 0000 0000 0000 000000
2014-05-07 02:17:29,0.02,1.63,0.00,20.41,26.65,28.48,6.05,30.75,1017.98,2040.09,2831.95,2885.06,3082.92,349.90,326.80,16.17,0000 0000 0000 0000 000000
2014-05-07 02:18:30,0.06,1.63,0.00,20.36,26.65,28.43,6.15,30.75,1018.01,2040.07,2831.77,2885.02,3082.77,349.44,327.02,16.17,0000 0000 0000 0000 000000
2014-05-07 02:19:30,0.04,1.63,0.00,20.37,26.66,28.44,6.09,30.88,1018.02,2040.03,2831.54,2885.00,3082.49,349.31,326.88,16.18,0000 0000 0000 0000 000000
2014-05-07 02:20:30,0.04,1.63,0.00,20.42,26.67,28.40,6.12,30.88,1018.00,2040.02,2831.38,2885.00,3082.28,348.10,325.52,16.18,0000 0000 0000 0000 000000
2014-05-07 02:21:30,0.05,1.63,0.00,20.42,26.67,28.44,6.27,30.83,1018.00,2040.07,2831.15,2885.00,3082.11,350.94,328.13,16.19,0000 0000 0000 0000 000000
2014-05-07 02:22:31,0.08,1.64,0.00,20.43,26.67,28.43,6.14,30.63,1017.94,2040.06,2831.03,2884.98,3082.04,349.98,327.21,16.20,0000 0000 0000 0000 000000
2014-05-07 02:23:31,0.04,1.64,0.00,20.45,26.67,28.45,6.03,30.88,1017.92,2040.06,2830.92,2884.96,3082.01,349.10,326.75,16.20,0000 0000 0000 0000 000000
2014-05-07 02:24:31,0.07,1.64,0.00,20.46,26.68,28.48,6.14,31.04,1017.81,2040.09,2830.50,2884.73,3081.98,350.87,327.97,16.21,0000 0000 0000 0000 000000
2014-05-07 02:25:32,0.13,1.64,0.00,20.49,26.69,28.47,6.11,30.96,1017.71,2040.03,2830.20,2884.33,3081.88,351.14,328.15,16.21,0000 0000 0000 0000 000000
2014-05-07 02:26:32,0.11,1.64,0.00,20.48,26.70,28.53,6.07,30.88,1017.66,2040.01,2830.07,2884.13,3081.55,349.11,326.53,16.22,0000 0000 0000 0000 000000
2014-05-07 02:27:32,0.10,1.64,0.00,20.50,26.70,28.55,5.86,30.96,1017.67,2040.00,2830.02,2884.06,3081.32,348.41,325.58,16.23,0000 0000 0000 0000 000000
2014-05-07 02:28:32,0.06,1.64,0.00,20.51,26.70,28.54,6.01,30.96,1017.64,2040.00,2830.00,2884.03,3081.15,349.15,326.25,16.23,0000 0000 0000 0000 000000
2014-05-07 02:29:32,0.03,1.64,0.00,20.52,26.70,28.52,5.97,30.67,1017.60,2040.02,2830.00,2884.01,3081.09,349.64,326.69,16.24,0000 0000 0000 0000 000000
2014-05-07 02:30:33,0.02,1.64,0.00,20.49,26.71,28.47,6.10,30.75,1017.59,2040.00,2829.98,2884.00,3081.03,350.08,326.94,16.24,0000 0000 0000 0000 000000
2014-05-07 02:31:33,0.01,1.64,0.00,20.48,26.72,28.46,6.14,30.54,1017.63,2040.00,2829.96,2884.00,3081.01,350.06,327.22,16.25,0000 0000 0000 0000 000000
2014-05-07 02:32:33,0.00,1.64,0.00,20.51,26.72,28.53,6.00,30.46,1017.62,2040.00,2829.94,2884.00,3081.00,349.98,327.34,16.25,0000 0000 0000 0000 000000
2014-05-07 02:33:33,0.01,1.64,0.00,20.51,26.72,28.58,6.13,30.83,1017.65,2040.00,2829.79,2883.99,3081.00,349.82,326.89,16.26,0000 0000 0000 0000 000000
2014-05-07 02:34:34,0.04,1.64,0.00,20.56,26.72,28.61,5.98,30.63,1017.64,2040.00,2829.37,2883.97,3081.00,349.51,326.71,16.27,0000 0000 0000 0000 000000
2014-05-07 02:35:34,0.07,1.64,0.00,20.61,26.73,28.60,6.00,30.75,1017.61,2040.00,2829.14,2883.91,3080.98,349.58,326.34,16.27,0000 0000 0000 0000 000000
2014-05-07 02:36:34,0.04,1.64,0.00,20.62,26.74,28.60,5.98,30.38,1017.60,2040.00,2829.08,2883.85,3080.99,350.25,326.95,16.28,0000 0000 0000 0000 000000